Content
SEND FEEDBACK

Daily
Averages
Monthly
Summary
Canada

MONTREAL, QUEBEC


Home > North America > Canada > Quebec
Elevation: 118 feet     Latitude: 45 28N     Longitude: 073 45W

WEATHER
 
SELECT A DAY
Number of Records: 198,587;   Date Range: 1/1/95 - 8/31/14
 
SHARE

PRINT THIS DATA

[ ← Previous Day ]
WEATHER ALMANAC - APRIL 1, 2013
[ Next Day → ]
[ °C ]   °F
Weather ElementAverageHighLow
Temperature37.9 °F42.8 °F (9:50 am)24.8 °F (10:55 pm)
Dewpoint29.1 °F39.2 °F (1:00 am)10.4 °F (9:00 pm)
Humidity71.3 %93 % (1:00 am)39 % (4:00 pm)
Barometer29.59 in29.79 in (10:55 pm)29.49 in (10:28 am)
Wind Speed19.8 mph32.2 mph (2:00 pm)
Wind Gust47.2 mph (4:00 pm)
Weather ElementAverage
Visibility14.9 mi
Wind DirectionSSW (218.5 °)

Weather ElementTotal
Precipitation---
Heating Degree Days31.2 (Base 65)
Averaged from 39 records on April 1, 2013
WEATHER CONDITIONS BREAKOUT
WIND DIRECTION BREAKOUT
WEATHER BY HOUR - APRIL 1, 2013
[ °C ]   °F
Local TimeTemperatureDewpointHumidityBarometerVisibilityWind DirectionWind SpeedGust SpeedPrecipitationEventsConditions
1:00 AM41.0 °F39.2 °F93 %29.64 in12.0 miSSE (150°)11.5 mphRainLight Rain
2:00 AM42.0 °F38.0 °F82 %29.61 in12.0 miSSE (150°)16.1 mphRainLight Rain
2:00 AM41.0 °F37.4 °F87 %29.61 in12.0 miSSE (150°)17.3 mphRainLight Rain
3:00 AM41.0 °F37.4 °F87 %29.59 in15.0 miSSE (150°)15.0 mph20.7 mphRainLight Rain
4:00 AM41.0 °F37.4 °F87 %29.56 in15.0 miSE (140°)15.0 mphOvercast
5:00 AM41.0 °F37.4 °F87 %29.54 in15.0 miSSE (150°)13.8 mphOvercast
6:00 AM41.0 °F37.4 °F87 %29.54 in15.0 miSSE (150°)11.5 mphOvercast
7:00 AM41.0 °F37.4 °F87 %29.52 in15.0 miSSE (150°)10.4 mphOvercast
8:00 AM41.0 °F37.4 °F87 %29.52 in15.0 miSSE (150°)10.4 mphOvercast
8:00 AM40.0 °F37.0 °F83 %29.52 in15.0 miSSE (150°)10.4 mphPartly Cloudy
8:47 AM41.0 °F37.4 °F87 %29.51 in12.0 miSouth (170°)10.4 mphRainLight Rain Showers
9:00 AM41.0 °F37.4 °F87 %29.51 in15.0 miSouth (170°)12.7 mphRainLight Rain Showers
9:50 AM42.8 °F39.2 °F87 %29.50 in15.0 miSSW (200°)13.8 mphOvercast
10:00 AM42.8 °F39.2 °F87 %29.50 in15.0 miSSW (210°)11.5 mphRainLight Rain Showers
10:28 AM42.8 °F39.2 °F87 %29.49 in15.0 miSW (220°)15.0 mphOvercast
11:00 AM42.8 °F39.2 °F87 %29.49 in15.0 miSW (230°)13.8 mphOvercast
11:21 AM42.8 °F39.2 °F87 %29.49 in15.0 miSW (230°)15.0 mphRainLight Rain Showers
12:00 PM42.8 °F39.2 °F87 %29.49 in12.0 miSW (220°)17.3 mph25.3 mphRainLight Rain Showers
1:00 PM42.8 °F37.4 °F81 %29.50 in15.0 miSW (230°)21.9 mph29.9 mphOvercast
1:11 PM41.0 °F35.6 °F81 %29.51 in15.0 miSW (230°)23.0 mph29.9 mphRainLight Rain Showers
1:28 PM42.8 °F35.6 °F76 %29.51 in15.0 miWSW (250°)21.9 mph32.2 mphMostly Cloudy
1:51 PM41.0 °F28.4 °F61 %29.52 in15.0 miWSW (250°)31.1 mph38.0 mphRainLight Rain Showers
2:00 PM39.0 °F30.0 °F60 %29.54 in15.0 miWSW (240°)32.2 mphRainLight Rain Showers
2:00 PM39.2 °F30.2 °F70 %29.54 in15.0 miSW (230°)32.2 mph43.7 mphRainLight Rain Showers
2:14 PM41.0 °F32.0 °F70 %29.54 in15.0 miWSW (250°)24.2 mph36.8 mphMostly Cloudy
3:00 PM41.0 °F23.0 °F49 %29.55 in15.0 miWSW (250°)29.9 mph46.0 mphScattered Clouds
4:00 PM39.2 °F15.8 °F39 %29.58 in30.0 miWSW (250°)32.2 mph47.2 mphScattered Clouds
5:00 PM35.6 °F15.8 °F44 %29.62 in15.0 miWSW (250°)28.8 mph41.4 mphMostly Cloudy
5:36 PM35.6 °F15.8 °F44 %29.64 in15.0 miWSW (250°)24.2 mph29.9 mphScattered Clouds
6:00 PM35.6 °F14.0 °F41 %29.65 in15.0 miWest (260°)27.6 mph36.8 mphScattered Clouds
6:55 PM32.0 °F19.4 °F60 %29.70 in10.0 miWest (270°)32.2 mph41.4 mphRainLight Rain Showers
7:00 PM32.0 °F19.4 °F60 %29.70 in15.0 miWest (260°)21.9 mph41.4 mphMostly Cloudy
8:00 PM31.0 °F16.0 °F40 %29.73 in15.0 miWest (260°)21.9 mphPartly Cloudy
8:00 PM30.2 °F15.8 °F55 %29.73 in15.0 miWest (270°)25.3 mph34.5 mphMostly Cloudy
9:00 PM28.4 °F10.4 °F47 %29.76 in15.0 miWest (260°)20.7 mph29.9 mphScattered Clouds
10:00 PM28.4 °F10.4 °F47 %29.78 in15.0 miWest (270°)17.3 mph24.2 mphPartly Cloudy
10:55 PM24.8 °F14.0 °F64 %29.79 in15.0 miWest (280°)20.7 mph28.8 mphSnowLight Snow Showers
11:00 PM24.8 °F14.0 °F64 %29.79 in15.0 miWest (280°)21.9 mph28.8 mphSnowLight Snow Showers
11:18 PM24.8 °F14.0 °F64 %29.79 in15.0 miWNW (290°)18.4 mph31.1 mphPartly Cloudy
Hourly data recorded from CYUL, located miles away from Montreal, Quebec







STORIES FROM OUR PARTNERS